TimeHST,TemperatureF,Dew PointF,Humidity,Sea Level PressureIn,VisibilityMPH,Wind Direction,Wind SpeedMPH,Gust SpeedMPH,PrecipitationIn,Events,Conditions,WindDirDegrees,DateUTC
12:53 AM,73.9,63.0,68,30.03,10.0,NE,5.8,-,N/A,,Partly Cloudy,50,2013-05-18 10:53:00
1:53 AM,72.0,64.0,76,30.01,10.0,North,4.6,-,N/A,,Partly Cloudy,10,2013-05-18 11:53:00
2:53 AM,72.0,64.0,76,29.99,10.0,Calm,Calm,-,N/A,,Partly Cloudy,0,2013-05-18 12:53:00
3:53 AM,72.0,64.0,76,29.98,10.0,Variable,4.6,-,N/A,,Partly Cloudy,0,2013-05-18 13:53:00
4:53 AM,71.1,64.0,78,29.99,10.0,North,4.6,-,N/A,,Clear,350,2013-05-18 14:53:00
5:53 AM,71.1,64.0,78,30.01,10.0,NNW,3.5,-,N/A,,Scattered Clouds,330,2013-05-18 15:53:00
6:53 AM,73.0,64.9,76,30.02,10.0,NW,3.5,-,N/A,,Scattered Clouds,320,2013-05-18 16:53:00
7:53 AM,75.9,66.0,71,30.04,10.0,NNW,5.8,-,N/A,,Scattered Clouds,330,2013-05-18 17:53:00
8:53 AM,78.1,63.0,60,30.05,10.0,ESE,4.6,-,N/A,,Mostly Cloudy,110,2013-05-18 18:53:00
9:53 AM,80.1,63.0,56,30.06,10.0,ENE,5.8,-,N/A,,Mostly Cloudy,60,2013-05-18 19:53:00
10:53 AM,79.0,66.9,66,30.05,10.0,SSE,9.2,-,N/A,,Mostly Cloudy,160,2013-05-18 20:53:00
11:53 AM,73.0,68.0,84,30.05,4.0,Calm,Calm,-,0.05,Rain,Rain,0,2013-05-18 21:53:00
12:53 PM,77.0,68.0,74,30.03,10.0,South,5.8,-,0.00,,Mostly Cloudy,190,2013-05-18 22:53:00
1:53 PM,73.0,68.0,84,30.01,4.0,Variable,3.5,-,0.05,Rain,Heavy Rain,0,2013-05-18 23:53:00
2:53 PM,79.0,66.0,64,29.98,10.0,ESE,8.1,-,0.04,,Mostly Cloudy,110,2013-05-19 00:53:00
3:53 PM,75.9,66.9,74,29.97,10.0,SW,8.1,-,0.00,,Mostly Cloudy,220,2013-05-19 01:53:00
4:53 PM,78.1,66.0,66,29.97,10.0,WSW,8.1,-,N/A,,Mostly Cloudy,240,2013-05-19 02:53:00
5:53 PM,77.0,66.9,71,29.97,10.0,West,5.8,-,N/A,,Mostly Cloudy,280,2013-05-19 03:53:00
6:53 PM,75.9,63.0,64,29.99,10.0,NNE,4.6,-,N/A,,Scattered Clouds,30,2013-05-19 04:53:00
7:53 PM,73.9,64.9,73,30.01,10.0,NE,4.6,-,N/A,,Scattered Clouds,40,2013-05-19 05:53:00
8:53 PM,73.9,64.9,73,30.03,10.0,North,4.6,-,N/A,,Scattered Clouds,350,2013-05-19 06:53:00
9:53 PM,73.0,64.9,76,30.04,10.0,NNW,3.5,-,N/A,,Scattered Clouds,340,2013-05-19 07:53:00
10:53 PM,72.0,66.0,81,30.04,10.0,NNW,3.5,-,N/A,,Scattered Clouds,330,2013-05-19 08:53:00
11:53 PM,71.1,64.9,81,30.03,10.0,NW,4.6,-,N/A,,Scattered Clouds,310,2013-05-19 09:53:00